Weather History for Karlovy Vary, Czech Republic

Change the Weather History Date:

Monday, February 4, 2013

  Actual Average (EDQM) Record (EDQM)
Temperature  
Mean Temperature 32 °F -  
Max Temperature 37 °F 34 °F 51 °F (2004)
Min Temperature 28 °F 26 °F -2 °F (2012)
Degree Days  
Heating Degree Days 32    
Moisture  
Dew Point 31 °F    
Average Humidity 95    
Maximum Humidity 100    
Minimum Humidity 86    
Precipitation  
Precipitation 0.00 in - - ()
Sea Level Pressure  
Sea Level Pressure 29.71 in    
Wind  
Wind Speed 11 mph ()    
Max Wind Speed 16 mph    
Max Gust Speed 29 mph    
Visibility 3.3 miles    
Events Rain , Snow    
Averages and records for this station are not official NWS values.
T = Trace of Precipitation, MM = Missing Value Source: Averaged Metar Reports

Daily Weather History Graph

Daily Weather History Graph

Search for Another Location

Airport:

Trip Planner

Search our weather history database for the weather conditions in past years. The results will help you decide how hot, cold, wet, or windy it might be!

Date:

Astronomy

Feb. 04, 2013 Rise Set
Actual Time 7:37 AM CET 5:07 PM CET
Civil Twilight 7:03 AM CET 5:42 PM CET
Nautical Twilight 6:24 AM CET 6:20 PM CET
Astronomical Twilight 5:46 AM CET 6:58 PM CET
Moon 2:00 AM CET (2/4) 11:09 AM CET (2/4)
Length of Visible Light 10h 38m
Length of Day
9h 29m
Last Quarter, 40% of the Moon is Illuminated
Feb 4
Last Quarter
Feb 10
New
Feb 17
First Quarter
Feb 25
Full
Mar 4
Last Quarter

Hourly Weather History & Observations

Time (CET) Temp. Windchill Dew Point Humidity Pressure Visibility Wind Dir Wind Speed Gust Speed Precip Events Conditions
12:00 AM 28.4 °F 18.0 °F 26.6 °F 93% 29.71 in 0.7 mi WSW 12.7 mph 26.5 mph N/A Snow Snow
12:09 AM 28.4 °F 18.0 °F 26.6 °F 93% 29.71 in 1.9 mi WSW 12.7 mph - N/A Snow Light Snow
1:00 AM 28.4 °F 18.0 °F 26.6 °F 93% 29.71 in - WSW 12.7 mph - N/A Snow Light Snow
2:00 AM 28.4 °F 18.5 °F 26.6 °F 93% 29.71 in 5.0 mi WSW 11.5 mph - N/A Snow Light Snow
3:00 AM 30.2 °F 20.8 °F 26.6 °F 86% 29.71 in 6.2 mi WSW 11.5 mph - N/A   Overcast
4:00 AM 30.2 °F 20.8 °F 28.4 °F 93% 29.71 in 1.6 mi WSW 11.5 mph - N/A Snow Light Snow
5:00 AM 30.2 °F 20.8 °F 28.4 °F 93% 29.71 in 1.0 mi WSW 11.5 mph - N/A Snow Light Snow
6:00 AM 30.2 °F 20.8 °F 28.4 °F 93% 29.71 in 1.6 mi WSW 11.5 mph - N/A Snow Light Snow
7:00 AM 30.2 °F 21.9 °F 30.2 °F 100% 29.71 in 1.6 mi WSW 9.2 mph - N/A Snow Light Snow
7:31 AM 30.2 °F 21.9 °F 30.2 °F 100% 29.74 in 0.9 mi WSW 9.2 mph - N/A Snow Light Snow
7:38 AM 30.2 °F 21.9 °F 30.2 °F 100% 29.74 in 1.0 mi WSW 9.2 mph - N/A Snow Light Snow
8:00 AM 30.2 °F 21.3 °F 30.2 °F 100% 29.74 in 0.9 mi WSW 10.4 mph - N/A Snow Light Snow
8:30 AM 32.0 °F 23.6 °F 30.2 °F 93% 29.74 in 0.9 mi WSW 10.4 mph - N/A Snow Light Snow
9:00 AM 32.0 °F 25.6 °F 30.2 °F 93% 29.74 in 1.2 mi SW 6.9 mph - N/A Snow Light Snow
9:30 AM 32.0 °F 25.6 °F 30.2 °F 93% 29.74 in 1.2 mi SW 6.9 mph - N/A Snow Light Snow
10:00 AM 32.0 °F 24.8 °F 30.2 °F 93% 29.74 in 1.9 mi SW 8.1 mph - N/A Snow Light Snow
10:30 AM 32.0 °F 23.6 °F 30.2 °F 93% 29.74 in 2.2 mi WSW 10.4 mph - N/A Snow Light Snow
12:00 PM 32.0 °F 24.2 °F 32.0 °F 100% 29.71 in 0.7 mi WSW 9.2 mph 20.7 mph N/A Snow Light Snow
12:30 PM 32.0 °F 24.2 °F 32.0 °F 100% 29.71 in 0.7 mi WSW 9.2 mph - N/A Snow Light Snow
1:00 PM 32.0 °F 23.6 °F 32.0 °F 100% 29.68 in 1.9 mi WSW 10.4 mph - N/A Snow Light Snow
1:30 PM 32.0 °F 23.0 °F 32.0 °F 100% 29.68 in 1.9 mi WSW 11.5 mph 23.0 mph N/A Snow Light Snow
2:00 PM 32.0 °F 21.6 °F 32.0 °F 100% 29.68 in 1.9 mi WSW 15.0 mph - N/A Snow Light Snow
2:30 PM 33.8 °F 23.9 °F 32.0 °F 93% 29.68 in 1.9 mi WSW 15.0 mph - N/A Snow Light Snow
3:00 PM 33.8 °F 23.5 °F 32.0 °F 93% 29.68 in 2.8 mi West 16.1 mph - N/A Rain , Snow Light Rain
3:30 PM 33.8 °F 23.5 °F 32.0 °F 93% 29.68 in 5.0 mi WSW 16.1 mph - N/A Rain , Snow Light Rain
4:00 PM 33.8 °F 23.9 °F 33.8 °F 100% 29.68 in 5.6 mi WSW 15.0 mph - N/A Rain , Snow Light Rain
4:30 PM 35.6 °F 26.6 °F 33.8 °F 93% 29.71 in 6.2 mi West 13.8 mph 26.5 mph N/A   Mostly Cloudy
5:00 PM 35.6 °F 26.6 °F 33.8 °F 93% 29.71 in 5.0 mi WSW 13.8 mph 25.3 mph N/A   Mostly Cloudy
5:30 PM 35.6 °F 26.2 °F 33.8 °F 93% 29.71 in 5.6 mi WSW 15.0 mph - N/A   Mostly Cloudy
6:00 PM 35.6 °F 25.9 °F 35.6 °F 100% 29.71 in 5.6 mi WSW 16.1 mph - N/A   Mostly Cloudy
6:30 PM 35.6 °F 27.5 °F 35.6 °F 100% 29.71 in 5.6 mi WSW 11.5 mph - N/A Rain Light Rain
7:00 PM 37.4 °F 29.3 °F 35.6 °F 93% 29.71 in 6.2 mi WSW 12.7 mph 28.8 mph N/A Rain Light Rain
7:30 PM 37.4 °F 28.9 °F 35.6 °F 93% 29.71 in 6.2 mi WSW 13.8 mph - N/A Rain Light Rain
8:00 PM 37.4 °F 28.5 °F 35.6 °F 93% 29.74 in 6.2 mi WSW 15.0 mph - N/A   Mostly Cloudy
9:00 PM 37.4 °F 29.3 °F 35.6 °F 93% 29.74 in 6.2 mi WSW 12.7 mph - N/A Rain Light Rain
10:00 PM 35.6 °F 28.6 °F 35.6 °F 100% 29.74 in 6.2 mi WSW 9.2 mph - N/A Rain Light Rain
11:00 PM 35.6 °F 29.2 °F 33.8 °F 93% 29.74 in 6.2 mi WSW 8.1 mph - N/A   Mostly Cloudy